User: anonymous
Location: Caltech
(34.1382°N, 118.1253°W)
Time: 16:43:13
(UTC-07:00)
Language:

Cosmos 2333 Rocket - Orbit

View from above orbital plane
View from above orbital plane
View from above satellite
View from above satellite

Ground track
Ground track

The orbit data is extracted from the following two-line orbital elements,

1 24298U 96051B   14245.48031845 -.00000187  00000-0 -74588-4 0  5322
2 24298 070.8641 049.1828 0018368 258.7202 162.7059 14.12465237927987
Epoch (UTC): 02 September 2014 11:31:39
Eccentricity: 0.0018368
inclination: 70.8641°
perigee height: 837 km
apogee height: 864 km
right ascension of ascending node: 49.1828°
argument of perigee: 258.7202°
revolutions per day: 14.12465237
mean anomaly at epoch: 162.7059°
orbit number at epoch: 92798

The dashed part of the orbit path shows where the satellite is in the earth's shadow,  

DLR